This demonstration page uses our WeatherBlox Daily Observations layout. Learn more.

Left ArrowRight Arrow

34.16533, -84.80231

Hourly Observations for July 17, 2020

Temp ( °F °C ) Dew Point ( °F °C ) Humidity (%) Winds ( mph kmh ) Pressure ( in mb ) Visibility ( mi km ) Precip ( " mm )
12:53 am 00:53 Clear 78 25.6 72 22.2 82 82 Calm 30.12 1020 10 16 0.00 0.00
1:53 am 01:53 Clear 77 25 72 22.2 85 85 Calm 30.11 1020 10 16 0.00 0.00
2:53 am 02:53 Clear 77 25 72 22.2 85 85 NNW 3 6 30.11 1020 10 16 0.00 0.00
3:53 am 03:53 Clear 74 23.3 71 21.7 91 91 Calm 30.11 1020 10 16 0.00 0.00
4:53 am 04:53 Clear 74 23.3 71 21.7 91 91 Calm 30.12 1020 10 16 0.00 0.00
5:53 am 05:53 Clear 73 22.8 70 21.1 90 90 Calm 30.14 1021 9 14 0.00 0.00
6:53 am 06:53 Sunny 75 23.9 71 21.7 88 88 Calm 30.17 1022 8 13 0.00 0.00
7:53 am 07:53 Sunny 77 25 72 22.2 85 85 Calm 30.17 1022 9 14 0.00 0.00
8:53 am 08:53 Sunny 82 27.8 73 22.8 74 74 NE 3 6 30.19 1022 10 16 0.00 0.00
9:53 am 09:53 Sunny 86 30 74 23.3 67 67 Calm 30.19 1022 10 16 0.00 0.00
10:53 am 10:53 Mostly Sunny 90 32.2 71 21.7 54 54 VRB 3 6 30.19 1022 10 16 0.00 0.00
11:53 am 11:53 Sunny 89 31.7 70 21.1 53 53 Calm 30.19 1022 10 16 0.00 0.00
12:53 pm 12:53 Sunny 94 34.4 69 20.6 44 44 VRB 5 7 30.17 1022 10 16 0.00 0.00
1:53 pm 13:53 Sunny 95 35 68 20 41 41 S 5 7 30.15 1021 10 16 0.00 0.00
2:53 pm 14:53 Sunny 96 35.6 66 18.9 37 37 SSE 7 11 30.12 1020 10 16 0.00 0.00
3:53 pm 15:53 Mostly Sunny 96 35.6 68 20 40 40 VRB 6 9 30.10 1019 10 16 0.00 0.00
4:53 pm 16:53 Sunny 95 35 68 20 41 41 VRB 6 9 30.08 1019 10 16 0.00 0.00
5:53 pm 17:53 Sunny 95 35 68 20 41 41 VRB 3 6 30.06 1018 10 16 0.00 0.00
6:53 pm 18:53 Sunny 94 34.4 70 21.1 46 46 VRB 3 6 30.06 1018 10 16 0.00 0.00
7:53 pm 19:53 Sunny 91 32.8 71 21.7 52 52 S 5 7 30.06 1018 10 16 0.00 0.00
8:53 pm 20:53 Partly Cloudy 88 31.1 71 21.7 57 57 SSW 3 6 30.07 1018 10 16 0.00 0.00
9:53 pm 21:53 Mostly Clear 84 28.9 72 22.2 67 67 Calm 30.09 1019 10 16 0.00 0.00
10:09 pm 22:09 Mostly Cloudy with Nearby Thunderstorms 84 28.9 73 22.8 70 70 Calm 30.11 1020 10 16 0.00 0.00
10:36 pm 22:36 Cloudy with Thunderstorms 84 28.9 70 21.1 63 63 N 9 15 30.13 1020 10 16 0.00 0.00
10:53 pm 22:53 Cloudy with Thunderstorms 83 28.3 71 21.7 67 67 VRB 6 9 30.13 1020 10 16 0.00 0.00
11:39 pm 23:39 Clear with Nearby Thunderstorms 80 26.7 70 21.1 71 71 VRB 5 7 30.14 1021 10 16 0.00 0.00
11:53 pm 23:53 Mostly Clear 80 26.7 70 21.1 71 71 Calm 30.13 1020 10 16 0.00 0.00

Powered by AerisWeather